McGrath, AK

10:22 PM AKST on December 11, 2017 (GMT -0900)
McGrath

Weather History for PAMC - February, 2013

Change the Weather History Date:

Sunday, February 3, 2013

  Actual Average Record
Temperature  
Mean Temperature -6 °F -3 °F  
Max Temperature 5 °F 7 °F 43 °F (1982)
Min Temperature -16 °F -12 °F -64 °F (1947)
Degree Days  
Heating Degree Days 71 68  
Month to date heating degree days 201 205  
Since 1 July heating degree days 8929 8658  
Cooling Degree Days 0 0  
Month to date cooling degree days 0 0  
Year to date cooling degree days 0 0  
Moisture  
Dew Point -9 °F    
Average Humidity 0    
Maximum Humidity 0    
Minimum Humidity 0    
Precipitation  
Precipitation T in 0.03 in 0.26 in (1957)
Month to date precipitation T 0.10  
Year to date precipitation 2.52 1.19  
Snow  
Snow T in 0.40 in 3.00 in (2011)
Month to date snowfall T 1.4  
Since 1 July snowfall 55.8 68.3  
Snow Depth 39.00 in    
Sea Level Pressure  
Sea Level Pressure 29.43 in    
Wind  
Wind Speed 1 mph (NNW)    
Max Wind Speed 5 mph    
Max Gust Speed 5 mph    
Visibility 10 miles    
Events Snow    
T = Trace of Precipitation, MM = Missing Value Source: NWS Daily Summary

Daily Weather History Graph

Daily Weather History Graph

Search for Another Location

Airport or City:

Trip Planner

Search our weather history database for the weather conditions in past years. The results will help you decide how hot, cold, wet, or windy it might be!

Date:

Astronomy

Feb. 03, 2013 Rise Set
Actual Time 9:46 AM AKST 5:26 PM AKST
Civil Twilight 8:54 AM AKST 6:19 PM AKST
Nautical Twilight 7:58 AM AKST 7:15 PM AKST
Astronomical Twilight 7:05 AM AKST 8:08 PM AKST
Moon 3:39 AM AKST (2/3) 10:54 AM AKST (2/3)
Length of Visible Light 9h 25m
Length of Day
7h 39m
Waning Gibbous, 47% of the Moon is Illuminated
Feb 3
Waning Gibbous
Feb 9
New
Feb 17
First Quarter
Feb 25
Full
Mar 4
Last Quarter

Hourly Weather History & Observations

Time (AKST) Temp. Windchill Dew Point Humidity Pressure Visibility Wind Dir Wind Speed Gust Speed Precip Events Conditions
12:53 AM -7.1 °F - -11.9 °F 79% 29.48 in 10.0 mi Calm Calm - N/A   Clear
1:53 AM -9.0 °F -20.4 °F -14.1 °F 79% 29.47 in 10.0 mi NW 4.6 mph - N/A   Clear
3:53 AM -11.9 °F - -18.0 °F 74% 29.44 in 10.0 mi Calm Calm - N/A   Clear
4:53 AM -13.0 °F - -18.0 °F 78% 29.42 in 10.0 mi Calm Calm - N/A   Clear
5:53 AM -14.1 °F - -18.9 °F 79% 29.40 in 10.0 mi Calm Calm - N/A   Clear
6:53 AM -15.0 °F - -20.0 °F 78% 29.39 in 10.0 mi Calm Calm - N/A   Clear
7:53 AM -16.1 °F - -20.9 °F 79% 29.38 in 10.0 mi Calm Calm - N/A   Partly Cloudy
8:53 AM -15.0 °F -25.0 °F -20.0 °F 78% 29.38 in 10.0 mi NNW 3.5 mph - N/A   Mostly Cloudy
9:53 AM -14.1 °F - -18.9 °F 79% 29.38 in 10.0 mi Calm Calm - N/A   Mostly Cloudy
10:53 AM -11.0 °F - -16.1 °F 78% 29.38 in 10.0 mi Calm Calm - N/A   Mostly Cloudy
11:53 AM -7.1 °F - -11.0 °F 83% 29.38 in 10.0 mi Calm Calm - N/A   Mostly Cloudy
12:53 PM -2.9 °F - -7.1 °F 82% 29.39 in 10.0 mi Calm Calm - N/A   Mostly Cloudy
1:53 PM 1.0 °F - -4.0 °F 79% 29.39 in 10.0 mi Calm Calm - 0.01 in   Mostly Cloudy
2:53 PM 3.0 °F - -0.9 °F 84% 29.40 in 10.0 mi Calm Calm - N/A   Mostly Cloudy
3:53 PM 3.9 °F - -0.0 °F 84% 29.41 in 10.0 mi Calm Calm - N/A   Mostly Cloudy
4:53 PM 5.0 °F - -0.0 °F 80% 29.42 in 10.0 mi Calm Calm - N/A   Mostly Cloudy
5:53 PM 5.0 °F - -0.0 °F 80% 29.44 in 10.0 mi Calm Calm - N/A   Partly Cloudy
6:53 PM 3.9 °F - -0.0 °F 84% 29.45 in 10.0 mi Calm Calm - N/A   Mostly Cloudy
7:53 PM 5.0 °F - -0.0 °F 80% 29.46 in 10.0 mi Calm Calm - N/A   Overcast
8:53 PM 5.0 °F - 1.0 °F 84% 29.48 in 10.0 mi Calm Calm - N/A   Overcast
9:53 PM 5.0 °F -2.1 °F 1.0 °F 84% 29.49 in 10.0 mi North 3.5 mph - N/A   Overcast
10:53 PM 5.0 °F - -0.0 °F 80% 29.50 in 8.0 mi Calm Calm - 0.00 in Snow Light Snow
11:53 PM 3.9 °F -3.4 °F -0.0 °F 84% 29.52 in 10.0 mi NNW 3.5 mph - 0.00 in   Overcast